Regional Weather Roundup
Issued by NWS Jackson, KY

Home | Current Version | Previous Version | Text Only | Print | Product List | Glossary On
Versions: 1 2 3 4 5 6 7 8 9 10 11 12 13 14 15 16 17 18 19 20 21 22 23 24 25 26 27 28 29 30 31 32 33 34 35 36 37 38 39 40 41 42 43 44 45 46 47 48 49 50
000
ASUS43 KJKL 260710
RWRJKL

EAST KENTUCKY HOURLY WEATHER ROUNDUP
NATIONAL WEATHER SERVICE JACKSON KY
300 AM EDT THU MAY 26 2016

NOTE: "FAIR" INDICATES FEW OR NO CLOUDS BELOW 12,000 FEET WITH
NO SIGNIFICANT WEATHER AND/OR OBSTRUCTIONS TO VISIBILITY.

* THESE REPORTS ARE NOT UNDER NWS QUALITY CONTROL AND MAY NOT
  REPORT WEATHER SUCH AS PRECIPITATION AND FOG.

KYZ079-080-083-085-087-088-110-112-115-119-120-260800
...EASTERN KENTUCKY...

CITY           SKY/WX    TMP DP  RH WIND       PRES   REMARKS
JACKSON        CLOUDY    71  58  63 CALM      30.12R
LONDON         MOCLDY    67  60  78 W5        30.12R
SOMERSET*      PTCLDY    64  63  94 CALM      30.13R
MONTICELLO*    PTCLDY    63  61  94 E3        30.13R FOG
WILLIAMSBURG*  MOSUNNY   61  59  94 CALM      30.13R
MIDDLESBORO*   CLOUDY    64  62  93 CALM      30.14R
HARLAN APT*    PTSUNNY   66  57  72 CALM      30.15R
HAZARD APT*    PTSUNNY   68  61  77 CALM      30.12R
BLACK MTN*       N/A     63  57  82 S5          N/A
PIKE CO APT*   CLOUDY    71  58  63 SE5       30.13S
BIG SANDY APT* CLOUDY    72  58  61 S3        30.12R
MOREHEAD APT*  CLOUDY    66  63  88 S6        30.11S
ASHLAND*       MOCLDY    64  63  94 CALM      30.06S
$$

KYZ035-036-041-042-044-050-067-078-099-260800
...CENTRAL KENTUCKY...

CITY           SKY/WX    TMP DP  RH WIND       PRES   REMARKS
MT STERLING*   CLOUDY    64  63  94 SW5       30.12R
FLEMING/MASON* CLOUDY   N/A N/A N/A CALM      30.10R
DANVILLE*      MOCLDY    63  61  94 CALM      30.12S
RICHMOND*      MOCLDY    66  61  82 W3        30.10S
LEXINGTON      PTCLDY    66  61  84 SW6       30.10S
FRANKFORT      PTCLDY    67  61  81 SW6       30.08S
LOUISVILLE     CLOUDY    70  62  76 S6        30.06S
LEBANON*         N/A     66  64  94 SE3       30.10S
GLASGOW*       CLOUDY    64  64 100 CALM      30.09S
BOWLING GREEN  CLOUDY    67  64  90 SW7       30.08R
$$

KYZ091>093-OHZ055-061-077-WVZ005-015-034-035-042-260800
...SOUTHERN OHIO/WEST VIRGINIA...

CITY           SKY/WX    TMP DP  RH WIND       PRES   REMARKS
COVINGTON      CLOUDY    68  63  84 S6        30.07S
COLUMBUS       MOCLDY    67  61  81 S3        30.06S
DAYTON         PTCLDY    69  62  78 SW9       30.07R
WILMINGTON     MOCLDY    65  62  90 SW6       30.07S
HUNTINGTON     MOCLDY    66  63  90 E3        30.08F
CHARLESTON     MOCLDY    63  61  93 CALM      30.11F
PINEVILLE*       N/A     62  58  87 MISG      30.22R
BECKLEY        CLOUDY    66  54  65 SW5       30.19F
BLUEFIELD      CLOUDY    64  54  69 W3        30.22F
LOGAN CO APT*  CLOUDY    70  59  68 CALM      30.14S
$$

VAZ002-007-008-TNZ017-027-036-066-071-260800
...SOUTHWEST VIRGINIA/EAST TENNESSEE...

CITY           SKY/WX    TMP DP  RH WIND       PRES   REMARKS
WISE*          CLOUDY    68  52  56 S5        30.21S
JONESVILLE*      N/A    N/A N/A N/A CALM      30.17R
ABINGDON*        N/A     65  62  87 CALM      30.18S
BRISTOL        CLOUDY    66  64  93 CALM      30.15F
SEVIERVILLE*   SUNNY     63  57  82 CALM      30.12R
KNOXVILLE      PTCLDY    68  59  73 CALM      30.11R
OAK RIDGE      PTCLDY    66  61  84 CALM      30.13S
CROSSVILLE     CLOUDY    66  57  72 CALM      30.17R
NASHVILLE      PTCLDY    66  63  90 CALM      30.09F
$$

...KEY TO REMARKS...
VSB - VISIBILITY IN MILES
WCI - WIND CHILL INDEX
HX  - HEAT INDEX

$$



USA.gov is the U.S. government's official web portal to all federal, state and local government web resources and services.